Location: Berg
(48.4333°N, 13.9167°E)
Time: 15:11:16
(UTC+00:00)

NOSS 3-2 (A) - Pass Details

Date: 18 September 2020
Orbit: 795 x 1413 km, 63.4° (Epoch: 02 October)

Event Time Altitude Azimuth Distance (km) Brightness Sun altitude
Rises 18:10:00 0° 317° (NW) 3,874 7.7 -10.7°
Reaches altitude 10° 18:12:34 10° 322° (NW) 3,001 6.9 -11.1°
Maximum altitude 18:19:47 61° 42° (NE) 1,396 4.2 -12.2°
Enters shadow 18:26:32 16° 119° (ESE) 2,920 5.3 -13.3°
